GW2092 Weather Reports


time (UTC)temp
F
wind
direction
speed
knots
gust
knots
rain 1hr
in
rain 24hr
in
rain mn
in
humidity
%
barometer
mb
20260905091546 74 0 0.0 0.0 0.00 0.00 0.00 80 1015.3
20260905090054 74 0 0.0 0.0 0.00 0.00 0.00 79 1015.3
20260905084556 74 0 0.0 0.0 0.00 0.00 0.00 79 1015.1
20260905083047 75 0 0.0 0.0 0.00 0.00 0.00 78 1015.1
20260905081557 76 0 0.0 0.0 0.00 0.00 0.00 77 1015.0
20260905080054 76 0 0.0 0.0 0.00 0.00 0.00 75 1015.1
20260905074554 77 0 0.0 0.0 0.00 0.00 0.00 73 1015.0
20260905073059 77 0 0.0 0.0 0.00 0.00 0.00 74 1015.1
20260905071557 78 0 0.0 0.0 0.00 0.00 0.00 73 1015.2
20260905070055 78 0 0.0 0.0 0.00 0.00 0.00 72 1015.2
20260905064554 79 0 0.0 0.0 0.00 0.00 0.00 70 1015.4
20260905063048 79 0 0.0 0.0 0.00 0.00 0.00 70 1015.3
20260905061607 79 0 0.0 0.0 0.00 0.00 0.00 71 1015.3
20260905060100 78 0 0.0 0.0 0.00 0.00 0.00 71 1015.0
20260905054554 79 0 0.0 0.0 0.00 0.00 0.00 71 1015.1
20260905053047 79 0 0.0 0.0 0.00 0.00 0.00 70 1015.3
20260905051545 79 0 0.0 0.0 0.00 0.00 0.00 70 1015.4
20260905050044 79 0 0.0 0.0 0.00 0.00 0.00 69 1015.4
20260905044549 80 0 0.0 0.0 0.00 0.00 0.00 68 1015.6
20260905043056 81 0 0.0 0.0 0.00 0.00 0.00 66 1015.5
20260905041544 82 0 0.0 0.0 0.00 0.00 0.00 64 1015.5
20260905040054 83 0 0.0 0.0 0.00 0.00 0.00 63 1015.5
20260905034551 83 0 0.0 0.0 0.00 0.00 0.00 63 1015.4
20260905033050 83 0 0.0 0.0 0.00 0.00 0.00 62 1015.3
20260905031549 83 0 0.0 0.0 0.00 0.00 0.00 61 1015.1
20260905024547 83 0 0.0 0.0 0.00 0.00 0.00 61 1014.7
20260905023056 83 0 0.0 0.0 0.00 0.00 0.00 60 1014.3
20260905021555 83 0 0.0 0.0 0.00 0.00 0.00 61 1014.1
20260905020103 83 0 0.0 0.0 0.00 0.00 0.00 59 1013.9
20260905014546 84 0 0.0 0.0 0.00 0.00 0.00 58 1013.8
20260905013108 85 0 0.0 0.0 0.00 0.00 0.00 56 1013.6
20260905011628 86 0 0.0 0.0 0.00 0.00 0.00 54 1013.6
20260905010049 88 0 0.0 0.0 0.00 0.00 0.00 52 1013.6
20260905004549 90 0 0.0 0.0 0.00 0.00 0.00 50 1013.5
20260905003053 92 0 0.0 0.0 0.00 0.00 0.00 46 1013.3
20260905001557 94 0 0.0 0.9 0.00 0.00 0.00 44 1013.3
20260905000047 95 0 0.0 0.9 0.00 0.00 0.00 43 1013.4
20260904234546 95 0 0.0 3.5 0.00 0.00 0.00 42 1013.4
20260904233053 96 0 0.0 3.5 0.00 0.00 0.00 41 1013.4
20260904231552 96 0 0.0 2.6 0.00 0.00 0.00 41 1013.4
20260904230048 98 193 0.9 4.3 0.00 0.00 0.00 39 1013.4
20260904224547 100 0 0.0 1.7 0.00 0.00 0.00 37 1013.4
20260904223053 99 0 0.0 4.3 0.00 0.00 0.00 38 1013.6
20260904221554 102 137 0.0 7.0 0.00 0.00 0.00 36 1013.6
20260904220050 103 0 0.0 4.3 0.00 0.00 0.00 35 1013.6
20260904214555 101 240 0.0 5.2 0.00 0.00 0.00 36 1013.7
20260904213057 102 134 0.0 3.5 0.00 0.00 0.00 35 1013.9
20260904211550 102 0 0.9 3.5 0.00 0.00 0.00 36 1013.9
20260904210054 102 0 0.0 5.2 0.00 0.00 0.00 38 1014.0
20260904204554 102 0 0.9 4.3 0.00 0.00 0.00 39 1014.3
20260904203058 102 0 0.0 3.5 0.00 0.00 0.00 39 1014.4
20260904201545 100 0 0.0 4.3 0.00 0.00 0.00 40 1014.5
20260904200053 101 196 0.0 3.5 0.00 0.00 0.00 40 1015.0
20260904194607 100 0 0.9 5.2 0.00 0.00 0.00 41 1015.0
20260904193046 99 105 1.7 5.2 0.00 0.00 0.00 43 1015.1
20260904191553 99 207 0.9 6.1 0.00 0.00 0.00 42 1015.3
20260904190053 100 140 0.9 5.2 0.00 0.00 0.00 43 1015.5
20260904184548 100 0 0.9 5.2 0.00 0.00 0.00 43 1015.7
20260904183112 100 0 1.7 6.1 0.00 0.00 0.00 42 1015.9
20260904181606 99 198 0.0 3.5 0.00 0.00 0.00 43 1016.2
20260904180049 97 208 0.9 6.1 0.00 0.00 0.00 44 1016.2
20260904174601 97 247 0.0 4.3 0.00 0.00 0.00 47 1016.4
20260904173054 98 227 0.9 4.3 0.00 0.00 0.00 46 1016.5
20260904171547 97 215 0.9 5.2 0.00 0.00 0.00 48 1016.8
20260904170045 96 190 0.0 3.5 0.00 0.00 0.00 49 1016.9
20260904164547 95 163 0.0 5.2 0.00 0.00 0.00 51 1017.2
20260904163051 94 124 0.9 4.3 0.00 0.00 0.00 52 1017.2
20260904161546 93 211 0.0 3.5 0.00 0.00 0.00 55 1017.2
20260904160045 93 238 0.0 2.6 0.00 0.00 0.00 54 1017.2
20260904154548 93 0 0.9 3.5 0.00 0.00 0.00 56 1017.2
20260904153053 91 0 0.9 3.5 0.00 0.00 0.00 59 1017.1
20260904151547 90 181 0.0 3.5 0.00 0.00 0.00 61 1017.2
20260904150045 89 189 0.0 2.6 0.00 0.00 0.00 62 1017.3
20260904144555 88 193 0.0 4.3 0.00 0.00 0.00 64 1017.2
20260904143058 86 0 0.0 2.6 0.00 0.00 0.00 66 1017.3
20260904141550 85 0 0.0 3.5 0.00 0.00 0.00 67 1017.3
20260904140047 83 0 0.0 1.7 0.00 0.00 0.00 70 1017.2
20260904134600 81 0 0.0 0.9 0.00 0.00 0.00 72 1017.0
20260904133048 79 0 0.0 0.0 0.00 0.00 0.00 75 1017.0
20260904131544 78 0 0.0 0.9 0.00 0.00 0.00 76 1016.9
20260904130054 76 0 0.0 0.0 0.00 0.00 0.00 78 1016.6
20260904124548 75 0 0.0 0.0 0.00 0.00 0.00 81 1016.5
20260904123057 72 0 0.0 0.0 0.00 0.00 0.00 85 1016.5
20260904121558 71 0 0.0 0.0 0.00 0.00 0.00 86 1016.6
20260904120055 71 0 0.0 0.0 0.00 0.00 0.00 85 1016.6
20260904114548 71 0 0.0 0.0 0.00 0.00 0.00 84 1016.6
20260904113047 71 0 0.0 0.0 0.00 0.00 0.00 84 1016.4
20260904111602 71 0 0.0 0.0 0.00 0.00 0.00 84 1016.2
20260904110055 71 0 0.0 0.0 0.00 0.00 0.00 84 1016.0
20260904104556 72 0 0.0 0.0 0.00 0.00 0.00 83 1016.0
20260904103056 73 0 0.0 0.0 0.00 0.00 0.00 81 1015.9
20260904101602 73 0 0.0 0.0 0.00 0.00 0.00 80 1015.9
20260904100059 73 0 0.0 0.0 0.00 0.00 0.00 80 1015.8
20260904094604 73 0 0.0 0.0 0.00 0.00 0.00 81 1015.6
20260904093059 73 0 0.0 0.0 0.00 0.00 0.00 81 1015.6